Moorhead, MN

5:28 PM CDT on March 23, 2017 (GMT -0500)
Moorhead Municipal

Weather History for KJKJ - February, 2013

Change the Weather History Date:

Sunday, February 3, 2013

  Actual Average (KFAR) Record (KFAR)
Temperature  
Mean Temperature 0 °F -  
Max Temperature 6 °F 17 °F 48 °F (1991)
Min Temperature -5 °F -2 °F -36 °F (1893)
Degree Days  
Heating Degree Days 64    
Moisture  
Dew Point 0 °F    
Average Humidity 82    
Maximum Humidity 92    
Minimum Humidity 67    
Precipitation  
Precipitation 0.00 in - - ()
Sea Level Pressure  
Sea Level Pressure 30.05 in    
Wind  
Wind Speed 7 mph (NNE)    
Max Wind Speed 10 mph    
Max Gust Speed -    
Visibility 9 miles    
Events Snow    
Averages and records for this station are not official NWS values.
T = Trace of Precipitation, MM = Missing Value Source: NWS Daily Summary

Daily Weather History Graph

Daily Weather History Graph

Search for Another Location

Airport or City:

Trip Planner

Search our weather history database for the weather conditions in past years. The results will help you decide how hot, cold, wet, or windy it might be!

Date:

Astronomy

Feb. 03, 2013 Rise Set
Actual Time 7:48 AM CST 5:33 PM CST
Civil Twilight 7:15 AM CST 6:05 PM CST
Nautical Twilight 6:39 AM CST 6:41 PM CST
Astronomical Twilight 6:04 AM CST 7:17 PM CST
Moon 1:18 AM CST (2/3) 11:09 AM CST (2/3)
Length of Visible Light 10h 49m
Length of Day
9h 45m
Waning Gibbous, 48% of the Moon is Illuminated
Feb 3
Waning Gibbous
Feb 10
New
Feb 17
First Quarter
Feb 25
Full
Mar 4
Last Quarter

Hourly Weather History & Observations

Time (CST) Temp. Windchill Dew Point Humidity Pressure Visibility Wind Dir Wind Speed Gust Speed Precip Events Conditions
12:14 AM 1.4 °F -12.5 °F -0.4 °F 92% 30.08 in 10.0 mi WNW 8.1 mph - N/A   Clear
12:35 AM 3.2 °F -7.8 °F 1.4 °F 92% 30.07 in 10.0 mi West 5.8 mph - N/A   Scattered Clouds
12:55 AM -2.2 °F -18.0 °F -5.8 °F 85% 30.08 in 10.0 mi WNW 9.2 mph - N/A   Clear
1:14 AM -2.2 °F -16.8 °F -4.0 °F 92% 30.07 in 10.0 mi NW 8.1 mph - N/A   Clear
1:35 AM 1.4 °F -13.5 °F -0.4 °F 92% 30.08 in 10.0 mi West 9.2 mph - N/A   Clear
1:55 AM -0.4 °F -14.7 °F -2.2 °F 92% 30.08 in 10.0 mi WSW 8.1 mph - N/A   Clear
2:14 AM 1.4 °F -13.5 °F -0.4 °F 92% 30.09 in 10.0 mi West 9.2 mph - N/A   Scattered Clouds
2:35 AM -0.4 °F -15.7 °F -2.2 °F 92% 30.10 in 10.0 mi West 9.2 mph - N/A   Mostly Cloudy
2:55 AM -2.2 °F -14.2 °F -5.8 °F 85% 30.09 in 10.0 mi West 5.8 mph - N/A   Mostly Cloudy
3:15 AM -4.0 °F -12.4 °F -5.8 °F 92% 30.08 in 10.0 mi West 3.5 mph - N/A   Scattered Clouds
3:35 AM -0.4 °F -15.7 °F -2.2 °F 92% 30.09 in 10.0 mi West 9.2 mph - N/A   Mostly Cloudy
3:54 AM -5.8 °F -18.4 °F -7.6 °F 92% 30.07 in 10.0 mi West 5.8 mph - N/A   Scattered Clouds
4:15 AM 1.4 °F -11.3 °F -0.4 °F 92% 30.07 in 10.0 mi WNW 6.9 mph - N/A   Scattered Clouds
4:35 AM -2.2 °F -10.4 °F -5.8 °F 85% 30.06 in 10.0 mi NW 3.5 mph - N/A   Mostly Cloudy
4:54 AM -0.4 °F -10.4 °F -2.2 °F 92% 30.07 in 10.0 mi West 4.6 mph - N/A   Mostly Cloudy
5:15 AM 3.2 °F -9.1 °F 1.4 °F 92% 30.07 in 10.0 mi NW 6.9 mph - N/A   Overcast
5:35 AM 6.8 °F -7.8 °F 5.0 °F 92% 30.06 in 10.0 mi NNW 10.4 mph - N/A   Overcast
6:15 AM 6.8 °F -5.9 °F 3.2 °F 85% 30.06 in 10.0 mi North 8.1 mph - N/A   Overcast
6:35 AM 6.8 °F -5.9 °F 3.2 °F 85% 30.07 in 10.0 mi NNW 8.1 mph - N/A   Overcast
6:54 AM 6.8 °F -4.8 °F 3.2 °F 85% 30.07 in 10.0 mi NNW 6.9 mph - N/A   Overcast
7:15 AM 6.8 °F -5.9 °F 3.2 °F 85% 30.08 in 10.0 mi NNW 8.1 mph - N/A   Overcast
7:35 AM 6.8 °F -4.8 °F 3.2 °F 85% 30.09 in 10.0 mi North 6.9 mph - N/A   Overcast
7:54 AM 5.0 °F -8.1 °F 1.4 °F 85% 30.08 in 10.0 mi North 8.1 mph - N/A   Scattered Clouds
8:15 AM 3.2 °F -9.1 °F 1.4 °F 92% 30.08 in 10.0 mi NNE 6.9 mph - N/A   Mostly Cloudy
8:35 AM 5.0 °F -8.1 °F 1.4 °F 85% 30.08 in 7.0 mi NNE 8.1 mph - N/A   Mostly Cloudy
8:54 AM 5.0 °F -9.1 °F 1.4 °F 85% 30.08 in 10.0 mi NNE 9.2 mph - N/A   Scattered Clouds
9:15 AM 5.0 °F -8.1 °F 1.4 °F 85% 30.09 in 7.0 mi NNE 8.1 mph - N/A   Mostly Cloudy
9:35 AM 5.0 °F -4.1 °F 1.4 °F 85% 30.08 in 5.0 mi NE 4.6 mph - N/A   Overcast
9:54 AM 5.0 °F -5.6 °F 3.2 °F 92% 30.08 in 5.0 mi NE 5.8 mph - N/A   Overcast
10:15 AM 6.8 °F -7.8 °F 3.2 °F 85% 30.07 in 3.0 mi NE 10.4 mph - N/A   Overcast
10:34 AM 6.8 °F -4.8 °F 1.4 °F 79% 30.08 in 10.0 mi NE 6.9 mph - N/A   Mostly Cloudy
10:55 AM 6.8 °F -4.8 °F 1.4 °F 79% 30.07 in 10.0 mi NE 6.9 mph - N/A   Scattered Clouds
11:15 AM 6.8 °F -4.8 °F 1.4 °F 79% 30.07 in 10.0 mi ENE 6.9 mph - N/A   Mostly Cloudy
11:34 AM 6.8 °F -5.9 °F -0.4 °F 72% 30.07 in 10.0 mi NE 8.1 mph - N/A   Mostly Cloudy
11:55 AM 6.8 °F -7.8 °F -0.4 °F 72% 30.06 in 10.0 mi ENE 10.4 mph - N/A   Mostly Cloudy
12:15 PM 6.8 °F -4.8 °F -0.4 °F 72% 30.05 in 10.0 mi NE 6.9 mph - N/A   Scattered Clouds
12:34 PM 6.8 °F -5.9 °F -0.4 °F 72% 30.04 in 10.0 mi ENE 8.1 mph - N/A   Mostly Cloudy
12:55 PM 6.8 °F -3.5 °F -0.4 °F 72% 30.04 in 10.0 mi ENE 5.8 mph - N/A   Scattered Clouds
1:15 PM 6.8 °F -3.5 °F -0.4 °F 72% 30.03 in 10.0 mi ENE 5.8 mph - N/A   Clear
1:34 PM 6.8 °F -3.5 °F -2.2 °F 67% 30.03 in 10.0 mi NE 5.8 mph - N/A   Scattered Clouds
1:55 PM 6.8 °F -4.8 °F -2.2 °F 67% 30.02 in 10.0 mi ENE 6.9 mph - N/A   Mostly Cloudy
2:14 PM 6.8 °F -4.8 °F -2.2 °F 67% 30.02 in 10.0 mi East 6.9 mph - N/A   Scattered Clouds
2:35 PM 6.8 °F -4.8 °F -2.2 °F 67% 30.00 in 10.0 mi East 6.9 mph - N/A   Scattered Clouds
2:55 PM 6.8 °F -4.8 °F -2.2 °F 67% 30.00 in 10.0 mi East 6.9 mph - N/A   Scattered Clouds
3:15 PM 6.8 °F -4.8 °F -2.2 °F 67% 30.01 in 10.0 mi East 6.9 mph - N/A   Clear
3:34 PM 6.8 °F -3.5 °F -2.2 °F 67% 30.01 in 10.0 mi ENE 5.8 mph - N/A   Clear
3:55 PM 6.8 °F -2.0 °F -2.2 °F 67% 30.01 in 10.0 mi ENE 4.6 mph - N/A   Clear
4:15 PM 6.8 °F -3.5 °F -0.4 °F 72% 30.01 in 10.0 mi ENE 5.8 mph - N/A   Scattered Clouds
4:35 PM 6.8 °F -2.0 °F -0.4 °F 72% 30.01 in 10.0 mi ENE 4.6 mph - N/A   Scattered Clouds
4:55 PM 6.8 °F -0.1 °F -0.4 °F 72% 30.01 in 10.0 mi ENE 3.5 mph - N/A   Mostly Cloudy
5:14 PM 6.8 °F -3.5 °F -0.4 °F 72% 30.01 in 4.0 mi NE 5.8 mph - N/A   Overcast
5:35 PM 6.8 °F -3.5 °F 1.4 °F 79% 30.02 in 1.8 mi NE 5.8 mph - N/A   Overcast
5:55 PM 6.8 °F -3.5 °F 3.2 °F 85% 30.01 in 4.0 mi NE 5.8 mph - N/A   Overcast
6:14 PM 6.8 °F -5.9 °F 1.4 °F 79% 30.01 in 5.0 mi NE 8.1 mph - N/A   Overcast
6:35 PM 5.0 °F -6.9 °F 1.4 °F 85% 30.01 in 7.0 mi NE 6.9 mph - N/A   Overcast
6:55 PM 5.0 °F -8.1 °F 1.4 °F 85% 30.02 in 7.0 mi NE 8.1 mph - N/A Snow Light Snow
7:14 PM 5.0 °F -8.1 °F 1.4 °F 85% 30.02 in 10.0 mi NNE 8.1 mph - N/A   Overcast
7:54 PM 5.0 °F -8.1 °F -0.4 °F 78% 30.03 in 10.0 mi North 8.1 mph - N/A   Overcast
8:15 PM 3.2 °F -7.8 °F -0.4 °F 85% 30.03 in 10.0 mi NNE 5.8 mph - N/A   Scattered Clouds
8:35 PM 3.2 °F -7.8 °F -0.4 °F 85% 30.02 in 10.0 mi North 5.8 mph - N/A   Scattered Clouds
8:54 PM 1.4 °F -9.9 °F -2.2 °F 85% 30.02 in 10.0 mi North 5.8 mph - N/A   Scattered Clouds
9:15 PM -0.4 °F -10.4 °F -4.0 °F 85% 30.03 in 10.0 mi NNE 4.6 mph - N/A   Clear
9:35 PM 1.4 °F -11.3 °F -2.2 °F 85% 30.03 in 10.0 mi NNE 6.9 mph - N/A   Clear
9:54 PM 1.4 °F -9.9 °F -2.2 °F 85% 30.03 in 10.0 mi NNE 5.8 mph - N/A   Mostly Cloudy
10:15 PM 3.2 °F -7.8 °F -0.4 °F 85% 30.03 in 10.0 mi NNE 5.8 mph - N/A   Overcast
10:35 PM 3.2 °F -9.1 °F -0.4 °F 85% 30.03 in 10.0 mi NNE 6.9 mph - N/A   Overcast
10:54 PM 3.2 °F -11.3 °F -0.4 °F 85% 30.03 in 10.0 mi NNE 9.2 mph - N/A   Overcast
11:14 PM 3.2 °F -12.2 °F -2.2 °F 78% 30.03 in 10.0 mi NNE 10.4 mph - N/A   Overcast
11:35 PM 3.2 °F -10.3 °F -2.2 °F 78% 30.04 in 10.0 mi NNE 8.1 mph - N/A   Overcast
11:55 PM 3.2 °F -10.3 °F -2.2 °F 78% 30.04 in 10.0 mi NNE 8.1 mph - N/A   Overcast